Regional Weather Roundup
Issued by NWS

Home | Current Version | Previous Version | Text Only | Print | Product List | Glossary Off
Versions: 1 2 3 4 5 6 7 8 9 10 11 12 13 14 15 16 17 18 19 20 21 22 23 24 25 26 27 28 29 30 31 32 33 34 35 36 37 38 39 40 41 42 43 44 45 46 47 48 49 50

000
ASUS43 KIND 310059
RWRIN

WEATHER ROUNDUP FOR INDIANA
NATIONAL WEATHER SERVICE INDIANAPOLIS IN
800 PM EST FRI JAN 30 2015

NOTE: "FAIR" INDICATES FEW OR NO CLOUDS BELOW 12,000 FEET WITH NO
SIGNIFICANT WEATHER AND/OR OBSTRUCTIONS TO VISIBILITY.

* - STATION DOES NOT REPORT WEATHER SUCH AS PRECIPITATION OR FOG.

+ - STATION NOT QUALITY CONTROLLED BY THE NATIONAL WEATHER SERVICE.
    USE DATA WITH CAUTION...ESPECIALLY DEWPOINT AND RELATIVE
    HUMIDITY OBSERVATIONS.

INZ001>003-010>013-019-020-310200-
NORTHWEST INDIANA

CITY           SKY/WX    TMP DP  RH WIND       PRES   REMARKS
VALPARAISO     NOT AVBL

$$

LMZ046-743>745-310200-
SOUTHERN LAKE MICHIGAN

STATION/POSITION TIME  TEMP WIND        PRES
                       AIR  DIR/SP/G
                 (UTC) (F)  (DEG/KT/KT) (MB)
MICHIGAN CITY    0000   24   80/  2/  3   N/A

$$

INZ004-005-014>016-021>024-310200-
NORTH CENTRAL INDIANA

CITY           SKY/WX    TMP DP  RH WIND       PRES   REMARKS
ELKHART        CLEAR     21  12  68 CALM      30.43S
GOSHEN         CLEAR     22  14  71 CALM      30.42F
SOUTH BEND     FAIR      18  12  77 CALM      30.43S

$$

INZ006>009-017-018-025>027-310200-
NORTHEAST INDIANA

CITY           SKY/WX    TMP DP  RH WIND       PRES   REMARKS
ANGOLA *+      CLEAR     16  10  79 CALM      30.40F
FORT WAYNE     CLOUDY    24  15  68 CALM      30.44F

$$

INZ028-029-035-036-043>045-051>053-310200-
WEST CENTRAL INDIANA

CITY           SKY/WX    TMP DP  RH WIND       PRES   REMARKS
GREENCASTLE +  CLEAR     27  12  54 CALM      30.45S
LAFAYETTE      CLEAR     24  17  74 CALM      30.45S
TERRE HAUTE    CLEAR     27  19  72 CALM      30.46S

$$

INZ030>032-037>040-046>048-054>057-064-065-310200-
CENTRAL INDIANA

CITY           SKY/WX    TMP DP  RH WIND       PRES   REMARKS
COLUMBUS       CLEAR     27  18  69 CALM      30.46S
INDIANAPOLIS   CLEAR     24  15  68 CALM      30.44S
-EAGLE CREEK   CLEAR     24  16  71 CALM      30.44S
KOKOMO *+      CLEAR     25  18  74 SW3       30.44R
MT COMFORT *+  CLEAR     23  14  68 CALM      30.44S
SHELBYVILLE    CLEAR     26  19  74 CALM      30.44S

$$

INZ033-034-041-042-049-050-058-059-310200-
EAST CENTRAL INDIANA

CITY           SKY/WX    TMP DP  RH WIND       PRES   REMARKS
MUNCIE         CLEAR     22  15  75 CALM      30.43F

$$

INZ060-061-067>069-081>083-085>088-310200-
SOUTHWEST INDIANA

CITY           SKY/WX    TMP DP  RH WIND       PRES   REMARKS
EVANSVILLE     CLEAR     32  21  64 NW5       30.49R WCI  27
HUNTINGBURG *+ CLEAR     30  16  55 N5        30.47S WCI  25

$$

INZ062-063-066-070>080-084-089>092-310200-
SOUTH CENTRAL AND SOUTHEAST INDIANA

CITY           SKY/WX    TMP DP  RH WIND       PRES   REMARKS
BLOOMINGTON    CLEAR     25  17  72 CALM      30.44S
SEYMOUR +      CLEAR     25  18  74 CALM      30.47R

$$



USA.gov is the U.S. government's official web portal to all federal, state and local government web resources and services.